Regional Weather Roundup
Issued by NWS Charleston, SC

Current Version | Previous Version | Text Only | Print | Product List | Glossary Off
Versions: 1 2 3 4 5 6 7 8 9 10 11 12 13 14 15 16 17 18 19 20 21 22 23 24 25 26 27 28 29 30 31 32 33 34 35 36 37 38 39 40 41 42 43 44 45 46 47 48 49 50

000
ASUS42 KCHS 051112
RWRCHS

REGIONAL WEATHER ROUNDUP
NATIONAL WEATHER SERVICE CHARLESTON SC
700 AM EDT SAT SEP 05 2015

NOTE: "FAIR" INDICATES FEW OR NO CLOUDS BELOW 12,000 FEET WITH NO
SIGNIFICANT WEATHER AND/OR OBSTRUCTIONS TO VISIBILITY.

NOT ALL STATIONS ARE QUALITY CONTROLLED BY THE NATIONAL
WEATHER SERVICE. USE DATA WITH CAUTION...ESPECIALLY
DEWPOINT OBSERVATIONS.

SCZ027-030-031-034>040-042>050-051200-
...SOUTHEAST SOUTH CAROLINA...

CITY           SKY/WX    TMP DP  RH WIND       PRES   REMARKS
N CHARLESTON   PTCLDY    72  68  87 N12       30.04R
WATERFRONT PRK   N/A     74  70  87 N8        30.00R
MOUNT PLEASANT FAIR      72  70  94 N5        30.03R
JOHNS ISLAND   FAIR      72  70  94 N6        30.03R
PINOPOLIS        N/A     77  72  83 N13       29.96S
MONCKS CORNER  FAIR      75  70  83 N5        30.05R
SUMMERVILLE    NOT AVBL
BEAUFORT MCAS  MOCLDY    73  69  87 NE9       30.03R
BEAUFORT ARPT  FAIR      73  72  94 NE14      30.02R
HILTON HEAD IS PTCLDY    79  77  94 N6        30.03R
WALTERBORO     MOSUNNY   72  68  88 NE5       30.05R
ALLENDALE      FAIR      72  68  88 N3        30.04R

...SOUTHERN MIDLANDS AND PEE DEE...

CITY           SKY/WX    TMP DP  RH WIND       PRES   REMARKS
GEORGETOWN     NOT AVBL
KINGSTREE      NOT AVBL
ORANGEBURG     PTCLDY    70  66  87 NE5       30.06R
BARNWELL       FAIR      73  66  78 N7        30.07R
AIKEN          FAIR      68  64  88 NE6       30.10S
MANNING        FAIR      70  68  94 N3        30.05S
COLUMBIA       MOCLDY    73  68  84 N3        30.07R
SUMTER         CLEAR     71  68  90 NE6       30.05R
FLORENCE       CLEAR     72  69  90 N8        30.07R FOG
MYRTLE BEACH   PTCLDY    72  66  83 NE9       30.05S FOG
N MYRTLE BEACH CLOUDY    73  71  93 NE9       30.04S FOG

$$

GAZ063-065-086>088-099>101-113>116-118-119-134>141-150-051200-
...SOUTHEAST GEORGIA...

CITY           SKY/WX    TMP DP  RH WIND       PRES   REMARKS
SAVANNAH ARPT  PTCLDY    71  68  90 N3        30.02R
HUNTER AAF     CLEAR     74  74 100 N2        30.00R
FORT STEWART   PTCLDY    72  69  91 CALM      30.00S
STATESBORO     PTCLDY    70  32  24 CALM      30.04R
SYLVANIA       NOT AVBL
CLAXTON        NOT AVBL

...CSRA...CENTRAL AND FAR SOUTHEAST GEORGIA...

CITY           SKY/WX    TMP DP  RH WIND       PRES   REMARKS
THOMSON        PTCLDY    72  72 100 CALM      30.12R
AUGUSTA-BUSH   PTCLDY    71  68  90 NE5       30.06R
AUGUSTA-DANIEL PTCLDY    72  67  84 N5        30.07R
SWAINSBORO     FAIR      72  70  94 CALM      30.05R
VIDALIA        PTCLDY    72  70  94 CALM      30.04R
EASTMAN        FOG       71  71 100 CALM      30.07R VSB 1/4
HAZLEHURST     FAIR      73  73 100 CALM      30.02R
ALMA           CLEAR     71  69  93 CALM      30.01S
WAYCROSS       CLEAR     73  73 100 CALM      30.01R
JESUP          PTSUNNY   73  73 100 CALM      30.02R
BAXLEY         FAIR      72  72 100 CALM      30.02R
BRUNSWICK      CLEAR     72  70  94 CALM      30.02R
SAINT SIMONS   CLEAR     74  72  93 N7        30.00R

$$

SCZ027-028-034-036>038-045-046-048>050-GAZ119-141-051200-
...LAKE AND SUPPLEMENTAL COASTAL OBSERVATIONS...

STATION/POSITION TIME  TEMP    WIND        PRES    WAVE   SWELL
                       AIR SEA DIR/SP/G            HT/PER HT/PER/DIR
                 (UTC) (F)     (DEG/KT/KT) (MB)    (FT/S) (FT/S/D)
UPR LAKE MARION  NOT AVBL
WINYAH BAY       0945   71     340/  5     1016.0
LAKE MURRAY      1000   71      CALM  /  5 1017.6R
ACE BASIN NERRS  NOT AVBL
FORT PULASKI     1000   77 84   10/  9/ 12 1016.4R
SAPELO ISLAND    1000   76     350/  4     1016.0R

$$

ANZ835-935-AMZ111-154-330-350-352-354-370-450-454-472-051200-
...C-MAN AND BUOY OBSERVATIONS...

STATION/POSITION TIME  TEMP    WIND        PRES    WAVE   SWELL
                       AIR SEA DIR/SP/G            HT/PER HT/PER/DIR
                 (UTC) (F)     (DEG/KT/KT) (MB)    (FT/S) (FT/S/D)
BUOY 41004       1050   81 84   20/ 12/ 14 1015.6R   2/ 3
BUOY 41008       1050   81 84  330/  4/  4 1016.1R   1
FOLLY BEACH CMAN 1000   75     360/ 11/ 13 1016.5R
CAPERS NEARSHORE 1008   77      10/ 16/ 19 1016.6R
FRIPP NEARSHORE  1000   80      40/ 14/ 16 1015.6R


STATION/POSITION TIME  TEMP    WIND        PRES    WAVE   SWELL
                       AIR SEA DIR/SP/G            HT/PER HT/PER/DIR
                 (UTC) (F)     (DEG/KT/KT) (MB)    (FT/S) (FT/S/D)
5E ST. MARYS GA  1021      85                N/A     1
FRYING PAN BUOY  1050   81 82   30/ 12/ 14 1016.5R   2/ 3
BUOY 41025       1050   78 84   30/ 14/ 17 1016.5R   4/ 6   2/ 30/ 7
CAPE LOOKOUT NC  1000   80      30/ 19/ 22 1016.2R
BUOY 41002       1050   82 84   20/  8/ 10 1014.5R   1/ 9   2/ 60/ 9
BUOY 41010       1020   83 85   30/ 10/ 12 1014.4R
ST AUGUSTINE FL  1100   82 84   20/  6/  7 1016.3R


$$


USA.gov is the U.S. government's official web portal to all federal, state and local government web resources and services.